Thompson, Ohio, United States (44086)
Lat: 41.69N, Lon: 81.05W
Wx Zone: OHZ013
Local Info
Past Weather Observations for Saturday, January 24, 2015

NOTE: This archive is for the closest National Weather Service station to Thompson. Information may differ from the station used for current weather conditions.

Click here for Long-term Archive

Time Weather Temperature Dewpoint Humidity Pressure Winds Precip Visibility
23:53
Overcast
Light Snow
34°F / 1°C 30°F / -1°C 87% 29.65 in
(1004 mb)
W 15 mph
(W 24 kph)
0.00 in
(0.00 mm)
6SM
23:44
Overcast
Light Snow
34°F / 1°C 28°F / -2°C 81% 29.65 in
(1004 mb)
W 12.7 mph
(W 20 kph)
0.00 in
(0.00 mm)
8SM
23:01
Overcast
34°F / 1°C 28°F / -2°C 81% 29.65 in
(1004 mb)
W 12.7 mph
(W 20 kph)
- 8SM
22:53
Overcast
34°F / 1°C 28°F / -2°C 81% 29.65 in
(1004 mb)
W 11.5 mph
(W 19 kph)
- 8SM
21:53
Overcast
32°F / 0°C 28°F / -2°C 87% 29.62 in
(1003 mb)
SSW 12.7 mph
(SSW 20 kph)
- 7SM
21:45
Overcast
32°F / 0°C 28°F / -2°C 87% 29.62 in
(1003 mb)
W 12.7 mph
(W 20 kph)
- 7SM
20:53
Overcast
Fog And Mist
32°F / 0°C 28°F / -2°C 87% 29.62 in
(1003 mb)
W 12.7 mph
(W 20 kph)
0.00 in
(0.00 mm)
6SM
20:18
Overcast
Fog And Mist
30°F / -1°C 28°F / -2°C 93% 29.62 in
(1003 mb)
W 13.8 mph
(W 22 kph)
0.00 in
(0.00 mm)
5SM
20:08
Overcast
Light Freezing Rain
30°F / -1°C 28°F / -2°C 93% 29.62 in
(1003 mb)
W 11.5 mph
(W 19 kph)
0.00 in
(0.00 mm)
4SM
19:53
Overcast
Fog And Mist
30°F / -1°C 28°F / -2°C 93% 29.62 in
(1003 mb)
W 12.7 mph
(W 20 kph)
- 5SM
18:53
Overcast
Fog And Mist
30°F / -1°C 27°F / -3°C 86% 29.59 in
(1002 mb)
SSW 12.7 mph
(SSW 20 kph)
- 5SM
18:07
Overcast
Fog And Mist
30°F / -1°C 27°F / -3°C 86% 29.59 in
(1002 mb)
W 10.4 mph
(W 17 kph)
- 5SM
17:53
Overcast
Fog And Mist
30°F / -1°C 27°F / -3°C 86% 29.59 in
(1002 mb)
SSW 10.4 mph
(SSW 17 kph)
0.00 in
(0.00 mm)
5SM
17:00
Overcast
Fog And Mist
28°F / -2°C 25°F / -4°C 86% 29.56 in
(1001 mb)
SSW 8.1 mph
(SSW 13 kph)
0.00 in
(0.00 mm)
5SM
16:53
Overcast
Light Freezing Rain
28°F / -2°C 25°F / -4°C 86% 29.56 in
(1001 mb)
SSW 9.2 mph
(SSW 15 kph)
0.00 in
(0.00 mm)
4SM
16:17
Overcast
Fog And Mist
28°F / -2°C 25°F / -4°C 86% 29.56 in
(1001 mb)
SSW 8.1 mph
(SSW 13 kph)
- 6SM
15:53
Overcast
Fog And Mist
28°F / -2°C 25°F / -4°C 86% 29.56 in
(1001 mb)
SSW 8.1 mph
(SSW 13 kph)
- 5SM
14:53
Overcast
Fog And Mist
28°F / -2°C 25°F / -4°C 86% 29.56 in
(1001 mb)
SW 9.2 mph
(SW 15 kph)
- 5SM
13:53
Overcast
Fog And Mist
28°F / -2°C 25°F / -4°C 86% 29.56 in
(1001 mb)
SSW 10.4 mph
(SSW 17 kph)
- 5SM
13:19
Overcast
28°F / -2°C 23°F / -5°C 80% 29.56 in
(1001 mb)
SSW 8.1 mph
(SSW 13 kph)
- 7SM
12:53
Overcast
27°F / -3°C 23°F / -5°C 86% 29.59 in
(1002 mb)
SSW 10.4 mph
(SSW 17 kph)
- 7SM
11:53
Overcast
Fog And Mist
27°F / -3°C 23°F / -5°C 86% 29.62 in
(1003 mb)
SSW 11.5 mph
(SSW 19 kph)
- 6SM
10:53
Overcast
27°F / -3°C 21°F / -6°C 80% 29.65 in
(1004 mb)
SW 9.2 mph
(SW 15 kph)
- 7SM
09:53
Overcast
25°F / -4°C 21°F / -6°C 86% 29.65 in
(1004 mb)
SW 9.2 mph
(SW 15 kph)
- 8SM
09:18
Overcast
25°F / -4°C 21°F / -6°C 86% 29.65 in
(1004 mb)
SW 6.9 mph
(SW 11 kph)
- 9SM
08:53
Overcast
25°F / -4°C 21°F / -6°C 86% 29.65 in
(1004 mb)
SW 4.6 mph
(SW 7 kph)
- 9SM
07:53
Overcast
25°F / -4°C 19°F / -7°C 80% 29.68 in
(1005 mb)
SW 5.8 mph
(SW 9 kph)
- 10SM
06:53
Overcast
25°F / -4°C 19°F / -7°C 80% 29.68 in
(1005 mb)
SSW 4.6 mph
(SSW 7 kph)
- 10SM
06:42
Overcast
25°F / -4°C 19°F / -7°C 80% 29.68 in
(1005 mb)
SSW 5.8 mph
(SSW 9 kph)
- 10SM
05:53
Overcast
23°F / -5°C 19°F / -7°C 86% 29.68 in
(1005 mb)
W 6.9 mph
(W 11 kph)
0.00 in
(0.00 mm)
10SM
04:53
Overcast
Fog And Mist
25°F / -4°C 21°F / -6°C 86% 29.71 in
(1006 mb)
WNW 9.2 mph
(WNW 15 kph)
- 6SM
03:53
Overcast
25°F / -4°C 21°F / -6°C 86% 29.74 in
(1007 mb)
Calm - 7SM
03:07
Overcast
Fog And Mist
21°F / -6°C 19°F / -7°C 93% 29.74 in
(1007 mb)
Calm - 6SM
02:53
Overcast
Fog And Mist
21°F / -6°C 18°F / -8°C 86% 29.77 in
(1008 mb)
Calm - 6SM
01:53
Mostly Cloudy
Fog And Mist
18°F / -8°C 16°F / -9°C 93% 29.77 in
(1008 mb)
Calm - 5SM
00:53
Clear
19°F / -7°C 18°F / -8°C 93% 29.8 in
(1009 mb)
Calm - 7SM
Time Weather Temperature Dewpoint Humidity Pressure Winds Precip Visibility


Weather for websites

WeatherForYou.com, LLC is not responsible for any damages or problems caused by this service. Current weather conditions are obtained from the closest station including government and personal stations which may have varying degrees of accuracy. Weather forecasts are derived from the NOAA NDFD. Like all things, this site belongs to Jesus Christ... He just trusts me to maintain it. If you have any questions or comments email webmaster@weatherforyou.com

Copyright © 2015, WeatherForYou.com LLC. All rights reserved.